Погода Теплый Ключ

Погода Теплый Ключ : погода сейчас, прогноз погоды и архив. Всё, что Вы хотите узнать о погоде Теплый Ключ!

Хотите узнать прогноз погоды Теплый Ключ? Тогда Вам сюда: Погода Теплый Ключ

Поиск расширенной информации на нашем сайте:

Другие новости

Новости СМИ2

Главная страница сайта

Новости сайта

03.07.2017

Напоминаем, что на нашем специализированном сайте Метеоцентр.Азия вы можете получить высокодетализированные автоматические прогнозы погоды по пунктам России, СНГ и мира в авиационном формате (включающие направление и скорость ветра, видимость, явления погоды, количество и форму облачности, нижнюю и верхнюю границу облачности).


Погода Теплый Ключ - сегодня

Время (UTC), дата Ветер
(°,м/с) 
Видим.   Явления Облачность Т
(°С)
Тd
(°С)
f(%) Тe
(°С)
Pmin
(гПа)
dP
(гПа)
Po
(мм)
O2
(г/м3)
Тmin Tmax R s Состояние
почвы
00 16.04.18 140 (ЮВ) 20000 м    ясно 
-1.2 -11.6 45 -2  1003.1  -0.6  726  295           
03 16.04.18 230 (ЮЗ) 20000 м    ясно 
+3 -13 30 +2  1001.1  -1.5  725  290           
06 16.04.18 240 (ЮЗ) 20000 м    ясно 
+4.5 -14.4 24 +4  999.4  -1.3  724  288           
09 16.04.18 220 (ЮЗ) 20000 м    ясно 
+3.4 -14.6 25 +4  999.2  -0.4  723  289    +4.8       
12 16.04.18 тихо ()   н/о    н/о 
-6.9 -11.8 68 -7  1000.9  0.3  723  300           
15 16.04.18 110 (В) н/о    н/о 
-11.8 -14.7 79 -12  1001.3  -0.3  723  306           
18 16.04.18 140 (ЮВ) н/о    н/о 
-8.8 -13.2 70 -9  1000.5  -0.3  723  302           
00 17.04.18 130 (ЮВ) 20000 м    9/4 600 м кучево-дожд., средняя 
[Cb calv|Ac trans]
-0.9 -5.8 69 -2  998.8  -0.3  723  293           
03 17.04.18 260 (З) 10 км  слаб. ливневой снег  10/4 600 м кучево-дожд., средняя 
[Cb calv|Ac und]
-1.3 -5.7 72 -2  999.3  0.4  723  293           
06 17.04.18 240 (ЮЗ) 2000 м  слаб. ливневой снег  10/4 600 м кучево-дожд., средняя 
[Cb calv|Ac und]
-0.9 -3.1 85 999.3  0.1  723  293           
12 17.04.18 260 (З) н/о    н/о 
-1.5 -2.3 94 -2  1001.6  0.8  725  294           
15 17.04.18 210 (ЮЗ) н/о    н/о 
-2.5 -3.3 94 -2  1002.3  0.6  725  295           
18 17.04.18 190 (Ю) н/о    н/о 
-2.8 -3.9 92 -4  1002.6  0.2  725  296           
00 18.04.18 220 (ЮЗ) 20000 м    10/3 600 м средняя, верхняя 
[Ac trans|Cs]
-0.5 -9.8 49 -1  1003.8  0.8  726  294           
03 18.04.18 220 (ЮЗ) 20000 м    8/4 600 м кучево-дожд., средняя 
[Cb calv|Ac trans]
+1.2 -9.7 44 +2  1004.6  727  293           
06 18.04.18 250 (З) 20000 м    10/5 600 м кучево-дожд., средняя 
[Cb calv|Ac und]
+0.3 -7.6 55 1005.6  0.8  728  294           
12 18.04.18 тихо ()   н/о    н/о 
-6.7 -9.3 82 -7  1008  0.9  729  302           
15 18.04.18 050 (СВ) н/о    н/о 
-8.2 -10 87 -8  1008.8  0.6  729  304           
18 18.04.18 110 (В) н/о    н/о 
-11.6 -12.7 92 -11  1009.6  0.3  729  308           
00 19.04.18 110 (В) 20000 м    ясно 
-0.2 -8.9 52 -1  1008.6  -0.5  730  295           
03 19.04.18 100 (В) 20000 м    ясно 
+4 -8.1 41 +5  1007.6  -0.5  729  290           
06 19.04.18 150 (ЮВ) 20000 м    ясно 
+6 -10 31 +7  1006.5  -0.7  729  288           
09 19.04.18 080 (В) 20000 м    ясно 
+4.9 -11.4 30 +4  1006.2  -0.5  728  289    +6.2       
12 19.04.18 090 (В) н/о    н/о 
-0.6 -11 45 -1  1007.4  0.5  729  295           
15 19.04.18 080 (В) н/о    н/о 
-10.8 -13.3 82 -11  1009.4  0.7  729  307           
Время (UTC), дата Ветер
(°,м/с) 
Видим.   Явления Облачность Т
(°С)
Тd
(°С)
f(%) Тe
(°С)
Pmin
(гПа)
dP
(гПа)
Po
(мм)
O2
(г/м3)
Тmin Tmax R s Состояние
почвы

Для получения пояснительной информации подведите курсор к названию столбца.

ПОГОДА Теплый Ключ - архив

Всё, что Вы хотите узнать о погоде Теплый Ключ - удобно и подробно!

Выберите нужную дату (начиная с 1 января 2015* года) и нажмите кнопку "Найти".
Будут отображены архивные сводки погоды по пункту Теплый Ключ, начиная с указанной даты.


Отображать данные в формате CSV (для использования в таблицах Excel)


Внимание! Наш архив погоды предназначен исключительно для личного некоммерческого использования в познавательных целях. Если Вам необходимы официальные справки о состоянии погоды (для производственных, юридических, коммерческих и т.п. целей), обращайтесь в органы Росгидромета.

*Примечание: данная дата относится к архиву по метеостанциям СССР (Россия, СНГ, Балтия).
Архив по метеостанциям Зарубежной Европы и Азии (кроме Китая) хранится 10 дней, по другим регионам земного шара (Китай, Африка, Америка, Австралия, Океания) - 1 день.

Теплый Ключ - район местоположения метеостанции


Название, широта, долгота, высота метеостанции:
Теплый Ключ 62.8°ш. 136.8°д. 289 м над ур. моря [Российская Федерация]

Дополнительная информация

В oтличие oт бoльшинства пoгoдных сайтoв мы публикуем пoдрoбную метеoинфoрмацию в детальнoм прoфессиoнальнoм фoрмате.

Характеристики температуры и влажнoсти вoздуха измеряются на высoте 2 м в тени вдали oт зданий и деревьев.
Скoрoсть ветра измеряется на высoте 10 м (на урoвне рoста челoвека скoрoсть ветра ниже в 1.5-2 раза). Если метеoстанция нахoдится в гoрoде или в лесу, тo скoрoсть ветра занижена на 2-4 м/с пo сравнению с oткрытым местoм. Скoрoсть ветра над акватoриями крупных рек и oзёр, а также на вершинах хoлмoв на 2-5 м/с выше, чем в oбычных услoвиях.
Атмoсфернoе давление в разных тoчках местнoсти мoжет значительнo oтличаться oт давления на метеoстанции, в зависимoсти oт услoвий рельефа (при пoдъёме на 10 м давление пoнижается примернo на 1 мм рт.ст.).